Theta_e
310 309 309 309 309 310 311 312 313 312 311 312 313 314 314 315 318 321 318 316 317 317 318 321 321 319 318 319 318 319 317 319 320 320 320 321 321 322 321 321 321 321 321 322 321
311 310 310 311 311 311 312 313 314 313 313 313 313 314 314 314 319 318 316 316 317 319 322 320 321 319 321 319 319 318 319 320 321 320 319 319 318 319 319 319 319 320 320 320 320
311 312 312 313 313 313 313 313 314 314 314 314 314 314 314 314 324 321 317 317 317 320 322 322 322 321 321 321 321 322 320 321 321 320 320 319 319 319 319 319 320 320 320 321 321
307 310 311 312 312 312 313 314 314 315 315 315 316 316 315 318 322 320 316 316 317 321 323 321 323 323 322 321 322 320 320 321 320 319 319 319 319 320 319 319 319 319 319 320 320
308 308 310 312 312 312 313 313 314 314 315 315 315 315 319 327 321 320 318 320 322 323 321 321 322 322 323 324 321 322 322 323 321 320 320 320 321 321 321 321 320 320 320 319 320
308 310 311 312 311 311 312 313 314 315 315 315 315 315 326 327 318 322 321 320 321 321 319 320 322 321 321 321 323 323 323 323 321 321 322 322 321 320 320 321 320 320 320 320 319
308 308 311 311 310 310 313 314 314 315 315 315 315 318 323 322 317 319 319 320 320 321 320 320 319 320 321 322 322 323 322 322 323 324 324 323 323 323 323 322 322 322 322 323 323
312 310 309 310 310 311 312 315 315 315 315 316 315 321 326 319 316 317 318 320 319 321 320 320 320 320 319 321 322 323 324 326 325 324 323 323 323 323 323 323 323 322 323 323 323
312 313 312 312 311 311 311 313 315 314 315 316 318 324 325 316 317 316 317 318 317 318 319 319 320 322 322 324 325 326 327 326 324 322 323 323 323 323 323 324 325 325 325 325 325
312 312 313 313 313 312 311 311 318 317 319 320 320 321 321 317 316 317 318 317 318 319 321 322 321 325 325 326 329 324 322 322 323 323 323 323 324 325 326 326 327 327 327 328 328
310 311 311 312 312 312 311 317 323 324 320 325 322 318 318 317 316 317 317 317 320 321 322 324 324 323 327 325 321 322 323 324 324 324 326 326 326 326 328 328 328 328 328 329 330
310 309 311 312 312 312 312 322 318 318 320 321 322 318 318 316 317 318 317 318 319 321 323 323 325 325 324 322 321 323 324 325 324 325 325 326 328 329 329 328 328 328 327 326 325
309 307 309 311 312 314 318 319 317 318 320 324 322 317 318 317 317 319 317 317 319 322 323 323 323 323 322 321 323 324 324 324 325 325 326 327 328 328 329 329 329 329 329 329 329
308 305 306 312 315 318 320 318 318 320 324 327 319 318 318 317 319 318 317 318 321 322 321 322 323 322 322 322 324 324 322 324 325 326 327 325 333 331 330 330 329 328 327 328 328
306 303 304 309 316 321 318 318 319 321 340 320 318 318 319 318 318 318 317 319 322 322 321 321 322 322 322 322 322 323 324 324 326 327 326 327 336 332 330 330 328 327 326 326 326
302 302 303 317 317 320 317 319 323 331 336 323 319 319 319 318 319 318 319 319 322 322 323 323 322 322 322 321 321 322 324 326 326 327 338 330 326 327 332 329 329 327 325 326 326
301 302 308 313 320 317 317 320 329 333 323 322 320 319 319 319 319 319 319 320 321 323 322 323 324 322 322 323 321 322 328 335 333 330 327 325 326 336 333 329 328 327 326 325 326
302 308 316 316 318 317 318 323 329 327 324 320 319 319 319 318 320 320 320 320 319 320 321 322 326 323 323 322 322 323 330 334 336 331 329 326 333 333 331 328 326 324 323 322 321
307 317 318 322 318 317 321 323 325 323 320 319 319 320 319 321 320 321 322 320 319 319 320 321 322 319 321 321 322 324 329 325 331 330 333 326 328 331 328 327 326 325 323 322 322
311 319 321 319 318 319 321 323 323 320 318 318 320 319 320 321 321 321 322 319 319 318 317 318 323 320 321 321 323 325 326 331 333 334 333 325 326 334 328 329 326 325 323 321 321
315 322 321 318 317 322 325 323 321 318 318 318 318 319 320 322 321 322 322 320 319 318 317 318 323 322 322 323 325 328 326 326 328 332 336 333 328 327 330 328 327 325 323 320 320
320 322 318 315 322 324 322 321 312 318 318 318 318 320 320 320 322 323 322 321 319 317 316 316 317 321 323 324 324 324 325 324 335 334 333 333 333 327 327 327 327 325 322 319 319
322 321 318 320 326 323 322 319 318 317 318 318 319 319 319 321 323 322 322 321 318 317 318 317 320 324 324 328 324 323 323 323 326 331 333 334 333 326 326 329 326 324 321 319 319
322 322 319 320 319 321 322 322 319 319 318 317 318 319 321 322 322 323 323 321 320 319 322 320 322 325 333 328 324 324 325 325 325 334 333 334 329 326 327 328 326 323 320 318 318
322 320 318 323 322 320 320 320 319 320 318 318 320 321 321 322 323 324 323 321 321 318 318 323 324 324 322 322 323 323 324 325 327 327 332 329 328 327 328 327 326 322 320 318 318
316 316 315 316 319 320 317 321 322 319 319 319 321 320 319 322 323 324 322 322 322 320 319 321 324 323 323 323 321 322 329 327 324 323 324 327 327 324 326 326 326 322 320 318 318
315 314 317 317 319 319 321 322 318 317 319 318 318 319 320 321 321 320 319 320 321 322 320 322 326 327 327 324 322 330 329 324 324 325 328 329 326 324 325 325 325 321 320 317 317
Wind_Speed
13 12 12 11 10 9 10 10 10 8 5 4 4 4 6 9 12 8 11 5 6 8 14 15 15 3 9 12 5 11 8 11 17 13 11 17 12 5 3 12 9 16 17 16 27
14 12 12 11 10 10 9 8 8 8 6 4 4 7 10 14 16 10 2 3 6 10 17 11 9 6 10 7 4 6 9 13 11 11 11 14 13 14 15 16 16 16 20 23 25
12 12 12 11 11 10 9 8 7 7 6 5 8 12 16 17 12 7 4 4 7 10 18 17 12 6 10 2 8 3 11 15 12 11 11 13 14 14 15 17 17 16 16 18 17
12 10 10 11 11 10 9 9 7 5 5 7 9 12 13 8 4 7 3 5 9 15 19 10 12 9 9 6 4 8 12 12 11 11 13 14 15 17 17 18 17 17 17 17 18
13 11 10 11 12 12 11 9 8 7 7 8 12 16 9 8 4 4 5 4 12 13 13 10 12 9 12 15 9 13 15 13 10 15 15 18 19 20 21 19 19 19 18 18 15
14 12 11 12 13 14 13 10 8 8 8 10 13 16 6 12 8 5 2 7 13 12 11 12 8 10 10 13 13 16 18 16 18 20 18 19 17 15 20 19 18 17 16 15 15
17 13 12 13 13 14 14 11 8 8 8 8 11 10 13 5 11 5 8 11 10 10 9 13 13 11 15 17 16 14 17 18 22 18 13 13 19 19 22 18 14 12 13 14 14
22 18 15 14 14 15 15 14 9 9 10 10 12 6 7 2 6 10 9 11 14 7 12 11 12 12 13 15 19 21 20 17 8 11 10 10 22 16 16 16 14 15 14 13 13
31 21 17 17 18 17 17 16 11 11 12 11 10 8 13 1 9 16 12 10 15 14 15 11 9 12 13 13 14 22 16 16 16 19 18 19 20 19 19 20 18 17 18 15 15
32 28 18 18 20 19 19 20 13 13 12 9 15 12 11 8 13 11 8 16 16 11 13 16 11 14 14 14 12 16 19 18 18 19 19 20 21 20 19 21 20 18 17 16 15
34 32 21 19 19 16 18 12 4 6 11 14 10 7 10 12 14 5 11 17 11 8 14 10 8 12 15 11 14 15 16 19 20 17 18 18 22 23 22 17 15 11 13 13 13
34 34 28 18 18 12 14 7 11 11 13 16 7 7 10 6 15 5 13 11 14 13 14 11 15 11 9 10 14 16 19 19 17 16 18 21 24 24 16 9 12 15 13 11 11
35 33 30 20 19 14 12 6 11 11 7 7 4 6 5 9 9 8 11 13 14 13 11 13 16 8 9 12 16 16 16 16 19 20 20 24 19 15 10 10 17 21 19 17 14
36 34 29 21 12 14 6 12 12 6 5 8 4 4 9 7 4 9 7 9 12 14 16 11 8 7 11 12 12 13 17 17 20 20 16 19 13 13 10 8 12 16 20 22 22
38 34 29 14 13 9 10 11 10 2 5 4 2 3 10 0 8 4 5 5 13 16 9 16 19 14 11 10 12 17 15 19 23 22 20 17 8 7 6 11 15 18 19 21 21
40 33 28 7 9 13 13 9 6 6 3 6 3 8 12 7 11 4 9 9 12 15 19 16 14 15 5 11 17 22 12 19 20 17 10 4 16 9 8 13 17 19 23 24 24
43 36 20 11 9 12 10 8 6 5 3 5 8 13 13 6 10 8 13 9 8 13 17 21 9 8 2 12 14 17 12 6 5 7 10 23 11 7 9 15 19 23 26 27 26
41 25 5 8 8 10 9 7 8 9 13 12 12 18 15 5 8 12 14 6 13 13 14 12 9 17 19 13 12 19 4 2 3 8 15 21 4 8 3 18 22 25 25 23 24
37 13 9 5 5 6 6 7 6 9 10 10 14 10 9 12 11 12 14 6 8 10 9 12 12 25 19 6 13 9 9 7 2 9 7 8 3 11 22 22 27 27 24 24 23
25 12 5 3 3 6 6 12 3 7 9 8 11 7 14 13 13 13 10 8 4 7 12 11 18 13 14 17 11 1 6 6 3 4 6 10 14 8 24 21 26 27 22 23 22
6 5 7 6 6 6 8 6 5 7 7 7 11 11 12 11 15 14 8 9 6 10 12 14 10 15 16 15 7 9 3 8 5 4 3 6 8 11 17 21 23 24 20 24 24
8 4 8 5 6 6 4 5 3 5 4 4 6 8 8 12 12 14 10 9 9 9 11 9 7 11 22 13 10 10 14 11 4 6 4 3 7 16 19 21 21 21 20 24 24
6 7 5 5 5 4 5 1 0 6 6 5 6 7 10 10 11 10 9 9 6 7 6 7 5 10 12 2 8 18 17 15 11 5 7 3 6 18 18 20 20 19 20 22 23
5 4 1 2 2 7 7 2 4 3 6 1 8 9 8 12 11 10 16 10 15 11 8 3 5 7 6 16 20 19 20 18 9 4 7 10 18 19 21 20 19 18 17 21 20
4 4 3 5 5 7 6 9 8 4 2 7 5 5 10 11 15 14 16 17 17 6 4 2 6 14 15 20 23 20 22 14 11 9 3 15 16 18 20 18 16 11 16 19 21
5 5 7 10 6 8 4 8 4 6 6 11 6 9 10 12 14 16 17 15 8 12 9 6 13 15 16 22 19 20 18 10 8 11 15 13 16 15 18 18 13 12 16 18 19
15 13 5 9 10 6 2 6 8 9 8 5 7 11 13 13 14 18 18 18 16 16 14 13 7 10 18 21 21 8 10 4 9 11 9 10 16 15 19 18 9 14 14 16 17
Wind_Direction
32 37 41 39 32 26 25 26 30 36 40 31 18 355 327 322 311 278 37 11 337 320 306 293 281 294 257 253 236 266 263 258 260 284 336 352 349 326 175 266 284 290 292 297 297
40 43 39 36 31 23 21 27 29 30 24 4 332 314 308 315 313 66 95 17 346 324 318 354 346 314 251 244 252 243 241 263 22 348 330 328 327 313 309 293 279 271 276 270 274
36 35 32 28 24 17 10 11 18 21 18 347 318 305 305 314 290 94 64 359 341 321 297 291 284 272 282 217 231 279 258 325 330 341 328 311 300 296 289 278 277 278 280 287 290
20 20 18 15 12 5 357 349 347 347 342 332 327 328 317 313 12 104 30 339 324 317 291 331 324 312 281 254 189 273 279 294 309 310 301 294 296 287 281 279 284 283 280 278 281
20 13 8 6 3 357 345 331 321 317 322 330 330 332 339 252 34 99 337 292 311 278 322 332 320 338 294 329 298 287 279 277 291 287 282 281 279 280 277 277 273 270 272 266 267
19 9 1 357 354 351 343 323 308 301 307 320 322 324 281 273 353 173 230 286 279 311 327 309 337 327 294 268 287 298 300 294 289 281 275 272 284 298 285 284 277 265 256 253 255
10 3 353 347 345 345 344 328 300 291 296 314 313 325 286 303 343 306 291 276 293 298 307 308 326 305 306 300 270 300 293 284 267 252 249 264 271 258 264 268 255 265 272 273 262
7 356 347 340 337 338 338 332 298 281 283 294 302 300 269 136 333 326 320 311 309 274 278 287 289 301 280 273 274 270 264 264 304 204 255 268 276 278 274 276 288 283 280 262 240
12 355 344 340 330 322 326 329 289 270 278 285 288 219 287 133 345 331 306 325 310 289 289 250 256 272 279 265 267 260 236 295 317 321 309 286 282 285 279 270 269 261 265 239 242
8 2 343 332 329 321 305 315 285 270 276 256 261 282 247 341 343 329 292 323 299 299 282 233 230 255 247 247 290 334 317 311 300 300 290 284 289 297 308 299 287 280 274 269 255
3 360 346 334 331 324 311 307 258 215 226 270 306 277 321 339 309 321 331 316 290 266 270 274 263 277 303 1 320 304 290 288 285 299 331 314 306 294 283 281 309 340 327 321 337
359 357 351 331 328 307 300 295 12 304 307 293 258 270 260 292 300 341 340 330 318 293 293 266 239 260 8 316 299 289 285 289 308 334 318 297 284 274 289 337 323 292 333 351 325
354 352 348 326 322 290 247 348 327 324 285 305 184 290 316 290 338 310 336 332 315 300 309 309 291 332 308 301 300 297 300 317 319 308 290 285 293 320 330 14 21 3 2 349 338
347 347 344 331 312 319 325 335 321 337 276 144 182 110 286 330 243 357 351 329 306 320 317 292 264 304 304 304 311 313 320 312 304 300 298 299 298 309 39 25 10 352 347 341 333
341 341 335 325 296 304 344 330 326 234 281 100 97 347 266 229 296 108 330 292 298 326 305 285 312 309 310 329 327 293 299 300 289 296 288 284 306 292 2 16 2 355 347 335 322
336 336 330 309 256 269 329 330 278 246 232 132 288 324 323 330 337 288 309 235 282 319 297 257 269 264 328 308 288 301 294 314 311 277 266 343 336 313 48 7 351 345 338 335 327
332 330 313 280 271 335 323 280 261 245 112 59 340 330 315 337 329 335 317 325 17 343 339 314 24 91 164 308 323 336 2 332 313 341 313 334 325 56 27 354 358 346 341 337 328
330 333 314 226 282 318 300 269 264 310 37 6 339 301 290 11 345 321 319 331 33 359 317 356 338 8 341 319 318 306 97 141 283 322 312 304 296 15 318 358 351 350 345 343 327
333 329 247 208 321 305 275 260 306 15 359 342 323 342 342 345 350 344 338 52 18 3 356 315 318 323 302 325 309 331 2 348 153 277 281 284 12 197 6 354 350 342 345 341 326
330 304 79 10 317 278 263 258 354 50 358 337 308 352 331 343 343 330 335 71 15 353 346 313 307 310 321 304 291 21 299 326 8 309 301 316 310 4 350 353 346 344 345 332 324
298 265 79 326 258 251 253 3 5 61 25 336 338 320 324 347 334 336 334 72 23 337 326 321 323 310 300 310 327 242 356 315 348 289 305 300 305 18 3 353 347 339 347 333 329
306 290 29 334 252 231 36 25 359 345 316 311 300 309 336 335 326 316 338 359 353 329 328 351 302 302 304 314 301 36 347 336 332 292 230 252 274 5 359 350 349 334 343 336 329
300 294 72 300 306 352 82 288 293 321 336 322 307 313 332 310 321 324 325 310 4 297 5 353 330 324 327 117 339 339 325 314 299 302 280 312 282 319 354 351 357 343 341 336 333
283 304 80 202 46 336 5 275 299 151 296 258 294 296 304 335 303 317 295 351 342 351 107 102 294 304 277 292 295 302 299 293 309 291 317 293 319 335 352 344 353 344 339 334 338
253 38 22 321 42 334 310 310 293 312 310 298 287 241 350 323 316 305 344 336 325 140 215 241 291 290 309 303 288 284 284 296 296 336 293 314 321 338 344 336 354 339 340 340 344
337 347 351 289 277 297 256 292 302 318 321 306 263 328 321 306 310 322 322 315 309 311 337 297 296 306 303 296 308 318 25 349 359 330 327 327 330 340 329 336 351 350 348 344 347
10 336 289 297 276 262 28 343 316 313 296 282 330 311 303 315 327 302 292 279 269 278 284 285 299 309 296 303 308 35 221 10 346 2 5 354 335 312 338 338 4 354 354 345 342